Time,TemperatureF,DewpointF,PressureIn,WindDirection,WindDirectionDegrees,WindSpeedMPH,WindSpeedGustMPH,Humidity,HourlyPrecipIn,Conditions,Clouds,dailyrainin,SoftwareType,DateUTC
2013-09-12 00:01:00,75.6,68.6,30.01,SW,225,0.0,0.0,79,0.00,CLR,,0.00,WeatherDisplay:10.37,2013-09-12 04:01:00,
2013-09-12 00:02:00,75.6,68.6,30.01,SW,225,0.0,0.0,79,0.00,CLR,,0.00,WeatherDisplay:10.37,2013-09-12 04:02:00,
2013-09-12 00:03:00,75.6,68.6,30.00,SW,225,0.0,0.0,79,0.00,CLR,,0.00,WeatherDisplay:10.37,2013-09-12 04:03:00,
2013-09-12 00:05:00,75.4,68.4,30.00,SW,225,0.0,0.0,79,0.00,CLR,,0.00,WeatherDisplay:10.37,2013-09-12 04:05:00,
2013-09-12 00:09:00,75.2,68.6,30.00,SW,225,0.0,0.0,80,0.00,CLR,,0.00,WeatherDisplay:10.37,2013-09-12 04:09:00,
2013-09-12 00:14:00,75.0,68.4,30.00,SW,225,0.0,0.0,80,0.00,CLR,,0.00,WeatherDisplay:10.37,2013-09-12 04:14:00,
2013-09-12 00:19:00,75.0,68.8,30.00,SW,225,0.0,0.0,81,0.00,CLR,,0.00,WeatherDisplay:10.37,2013-09-12 04:19:00,
2013-09-12 00:24:00,74.8,68.6,30.00,SW,225,0.0,0.0,81,0.00,CLR,,0.00,WeatherDisplay:10.37,2013-09-12 04:24:00,
2013-09-12 00:29:00,74.5,68.3,30.00,SW,225,0.0,0.0,81,0.00,CLR,,0.00,WeatherDisplay:10.37,2013-09-12 04:29:00,
2013-09-12 00:34:00,74.5,68.6,30.00,SW,225,0.0,0.0,82,0.00,CLR,,0.00,WeatherDisplay:10.37,2013-09-12 04:34:00,
2013-09-12 00:39:00,74.3,68.4,30.00,SW,225,0.0,0.0,82,0.00,CLR,,0.00,WeatherDisplay:10.37,2013-09-12 04:39:00,
2013-09-12 00:44:00,74.1,68.6,30.00,SW,225,0.0,0.0,83,0.00,CLR,,0.00,WeatherDisplay:10.37,2013-09-12 04:44:00,
2013-09-12 00:49:00,73.9,68.4,30.00,SW,225,0.0,0.0,83,0.00,CLR,,0.00,WeatherDisplay:10.37,2013-09-12 04:49:00,
2013-09-12 00:54:00,73.8,68.6,29.99,SW,225,0.0,0.0,84,0.00,CLR,,0.00,WeatherDisplay:10.37,2013-09-12 04:54:00,
2013-09-12 00:59:00,73.6,68.4,29.99,SW,225,0.0,0.0,84,0.00,CLR,,0.00,WeatherDisplay:10.37,2013-09-12 04:59:00,
2013-09-12 01:04:00,73.6,68.4,29.99,SW,225,0.0,0.0,84,0.00,CLR,,0.00,WeatherDisplay:10.37,2013-09-12 05:04:00,
2013-09-12 01:09:00,73.4,68.6,29.99,SW,225,0.0,0.0,85,0.00,CLR,,0.00,WeatherDisplay:10.37,2013-09-12 05:09:00,
2013-09-12 01:14:00,73.2,68.4,29.99,SW,225,0.0,0.0,85,0.00,CLR,,0.00,WeatherDisplay:10.37,2013-09-12 05:14:00,
2013-09-12 01:19:00,73.2,68.4,29.99,SW,225,0.0,0.0,85,0.00,CLR,,0.00,WeatherDisplay:10.37,2013-09-12 05:19:00,
2013-09-12 01:25:00,73.0,68.6,29.99,SW,225,0.0,0.0,86,0.00,CLR,,0.00,WeatherDisplay:10.37,2013-09-12 05:25:00,
2013-09-12 01:30:00,73.0,68.6,29.99,SW,225,0.0,0.0,86,0.00,CLR,,0.00,WeatherDisplay:10.37,2013-09-12 05:30:00,
2013-09-12 01:35:00,73.0,68.9,29.99,SW,225,0.0,0.0,87,0.00,CLR,,0.00,WeatherDisplay:10.37,2013-09-12 05:35:00,
2013-09-12 01:40:00,72.9,68.8,29.99,SW,225,0.0,0.0,87,0.00,CLR,,0.00,WeatherDisplay:10.37,2013-09-12 05:40:00,
2013-09-12 01:45:00,72.9,69.1,29.98,SW,225,0.0,0.0,88,0.00,CLR,,0.00,WeatherDisplay:10.37,2013-09-12 05:45:00,
2013-09-12 01:50:00,72.7,68.9,29.98,SW,225,0.0,0.0,88,0.00,CLR,,0.00,WeatherDisplay:10.37,2013-09-12 05:50:00,
2013-09-12 01:55:00,72.7,68.9,29.98,SW,225,0.0,0.0,88,0.00,CLR,,0.00,WeatherDisplay:10.37,2013-09-12 05:55:00,
2013-09-12 02:00:00,72.5,68.7,29.98,SW,225,0.0,0.0,88,0.00,CLR,,0.00,WeatherDisplay:10.37,2013-09-12 06:00:00,
2013-09-12 02:05:00,72.3,68.9,29.97,SW,225,0.0,0.0,89,0.00,CLR,,0.00,WeatherDisplay:10.37,2013-09-12 06:05:00,
2013-09-12 02:10:00,72.1,68.7,29.97,SW,225,0.0,0.0,89,0.00,CLR,,0.00,WeatherDisplay:10.37,2013-09-12 06:10:00,
2013-09-12 02:15:00,72.0,68.9,29.97,SW,225,0.0,0.0,90,0.00,CLR,,0.00,WeatherDisplay:10.37,2013-09-12 06:15:00,
2013-09-12 02:20:00,71.8,68.7,29.97,SW,225,0.0,0.0,90,0.00,CLR,,0.00,WeatherDisplay:10.37,2013-09-12 06:20:00,
2013-09-12 02:25:00,71.8,69.0,29.97,SW,225,0.0,0.0,91,0.00,CLR,,0.00,WeatherDisplay:10.37,2013-09-12 06:25:00,
2013-09-12 02:30:00,71.6,68.8,29.97,SW,225,0.0,0.0,91,0.00,CLR,,0.00,WeatherDisplay:10.37,2013-09-12 06:30:00,
2013-09-12 02:35:00,71.4,69.0,29.97,SW,225,0.0,0.0,92,0.00,CLR,,0.00,WeatherDisplay:10.37,2013-09-12 06:35:00,
2013-09-12 02:40:00,71.2,68.8,29.96,SW,225,0.0,0.0,92,0.00,CLR,,0.00,WeatherDisplay:10.37,2013-09-12 06:40:00,
2013-09-12 02:45:00,71.2,69.1,29.97,SW,225,0.0,0.0,93,0.00,CLR,,0.00,WeatherDisplay:10.37,2013-09-12 06:45:00,
2013-09-12 02:50:00,71.2,69.1,29.96,SW,225,0.0,0.0,93,0.00,CLR,,0.00,WeatherDisplay:10.37,2013-09-12 06:50:00,
2013-09-12 02:55:00,71.1,68.9,29.96,SW,225,0.0,0.0,93,0.00,CLR,,0.00,WeatherDisplay:10.37,2013-09-12 06:55:00,
2013-09-12 03:00:00,71.1,69.2,29.96,SW,225,0.0,0.0,94,0.00,CLR,,0.00,WeatherDisplay:10.37,2013-09-12 07:00:00,
2013-09-12 03:05:00,71.1,69.2,29.96,SW,225,0.0,0.0,94,0.00,CLR,,0.00,WeatherDisplay:10.37,2013-09-12 07:05:00,
2013-09-12 03:10:00,70.9,69.1,29.96,SW,225,0.0,0.0,94,0.00,CLR,,0.00,WeatherDisplay:10.37,2013-09-12 07:10:00,
2013-09-12 03:15:00,70.9,69.4,29.96,SW,225,0.0,0.0,95,0.00,CLR,,0.00,WeatherDisplay:10.37,2013-09-12 07:15:00,
2013-09-12 03:20:00,70.9,69.4,29.96,SW,225,0.0,0.0,95,0.00,CLR,,0.00,WeatherDisplay:10.37,2013-09-12 07:20:00,
2013-09-12 03:25:00,70.7,69.2,29.96,SW,225,0.0,0.0,95,0.00,CLR,,0.00,WeatherDisplay:10.37,2013-09-12 07:25:00,
2013-09-12 03:30:00,70.7,69.2,29.96,South,180,0.0,0.0,95,0.00,CLR,,0.00,WeatherDisplay:10.37,2013-09-12 07:30:00,
2013-09-12 03:35:00,70.7,69.2,29.96,South,180,0.0,0.0,95,0.00,CLR,,0.00,WeatherDisplay:10.37,2013-09-12 07:35:00,
2013-09-12 03:40:00,70.7,69.5,29.97,South,180,0.0,0.0,96,0.00,CLR,,0.00,WeatherDisplay:10.37,2013-09-12 07:40:00,
2013-09-12 03:45:00,70.7,69.5,29.96,South,180,0.0,0.0,96,0.00,CLR,,0.00,WeatherDisplay:10.37,2013-09-12 07:45:00,
2013-09-12 03:50:00,70.7,69.5,29.96,South,180,0.0,0.0,96,0.00,CLR,,0.00,WeatherDisplay:10.37,2013-09-12 07:50:00,
2013-09-12 03:55:00,70.7,69.5,29.96,South,180,0.0,0.0,96,0.00,CLR,,0.00,WeatherDisplay:10.37,2013-09-12 07:55:00,
2013-09-12 04:00:00,70.5,69.3,29.96,South,180,0.0,0.0,96,0.00,CLR,,0.00,WeatherDisplay:10.37,2013-09-12 08:00:00,
2013-09-12 04:05:00,70.5,69.3,29.96,South,180,0.0,0.0,96,0.00,CLR,,0.00,WeatherDisplay:10.37,2013-09-12 08:05:00,
2013-09-12 04:10:00,70.5,69.3,29.95,South,180,0.0,0.0,96,0.00,CLR,,0.00,WeatherDisplay:10.37,2013-09-12 08:10:00,
2013-09-12 04:15:00,70.5,69.6,29.95,South,180,0.0,0.0,97,0.00,CLR,,0.00,WeatherDisplay:10.37,2013-09-12 08:15:00,
2013-09-12 04:20:00,70.5,69.6,29.95,South,180,0.0,0.0,97,0.00,CLR,,0.00,WeatherDisplay:10.37,2013-09-12 08:20:00,
2013-09-12 04:25:00,70.3,69.4,29.95,South,180,0.0,0.0,97,0.00,CLR,,0.00,WeatherDisplay:10.37,2013-09-12 08:25:00,
2013-09-12 04:30:00,70.3,69.4,29.95,South,180,0.0,0.0,97,0.00,CLR,,0.00,WeatherDisplay:10.37,2013-09-12 08:30:00,
2013-09-12 04:35:00,70.3,69.4,29.95,South,180,0.0,0.0,97,0.00,CLR,,0.00,WeatherDisplay:10.37,2013-09-12 08:35:00,
2013-09-12 04:40:00,70.3,69.4,29.95,South,180,0.0,0.0,97,0.00,CLR,,0.00,WeatherDisplay:10.37,2013-09-12 08:40:00,
2013-09-12 04:45:00,70.2,69.3,29.95,South,180,0.0,0.0,97,0.00,CLR,,0.00,WeatherDisplay:10.37,2013-09-12 08:45:00,
2013-09-12 04:50:00,70.0,69.4,29.95,South,180,0.0,0.0,98,0.00,CLR,,0.00,WeatherDisplay:10.37,2013-09-12 08:50:00,
2013-09-12 04:55:00,70.0,69.4,29.95,South,180,0.0,0.0,98,0.00,CLR,,0.00,WeatherDisplay:10.37,2013-09-12 08:55:00,
2013-09-12 05:00:00,70.0,69.7,29.95,South,180,0.0,0.0,99,0.00,CLR,,0.00,WeatherDisplay:10.37,2013-09-12 09:00:00,
2013-09-12 05:05:00,70.0,69.7,29.95,South,180,0.0,0.0,99,0.00,BKN,,0.00,WeatherDisplay:10.37,2013-09-12 09:05:00,
2013-09-12 05:10:00,70.0,69.7,29.95,South,180,0.0,0.0,99,0.00,BKN,,0.00,WeatherDisplay:10.37,2013-09-12 09:10:00,
2013-09-12 05:15:00,70.0,69.7,29.95,South,180,0.0,0.0,99,0.00,BKN,,0.00,WeatherDisplay:10.37,2013-09-12 09:15:00,
2013-09-12 05:20:00,70.0,69.7,29.95,South,180,0.0,0.0,99,0.00,BKN,,0.00,WeatherDisplay:10.37,2013-09-12 09:20:00,
2013-09-12 05:25:00,70.0,69.7,29.95,South,180,0.0,0.0,99,0.00,BKN,,0.00,WeatherDisplay:10.37,2013-09-12 09:25:00,
2013-09-12 05:30:00,70.0,69.7,29.95,South,180,0.0,0.0,99,0.00,BKN,,0.00,WeatherDisplay:10.37,2013-09-12 09:30:00,
2013-09-12 05:35:00,70.0,69.7,29.95,South,180,0.0,0.0,99,0.00,BKN,,0.00,WeatherDisplay:10.37,2013-09-12 09:35:00,
2013-09-12 05:40:00,70.0,69.7,29.95,South,180,0.0,0.0,99,0.00,BKN,,0.00,WeatherDisplay:10.37,2013-09-12 09:40:00,
2013-09-12 05:45:00,70.0,69.7,29.95,South,180,0.0,0.0,99,0.00,BKN,,0.00,WeatherDisplay:10.37,2013-09-12 09:45:00,
2013-09-12 05:50:00,70.0,69.7,29.95,South,180,0.0,0.0,99,0.00,BKN,,0.00,WeatherDisplay:10.37,2013-09-12 09:50:00,
2013-09-12 05:55:00,70.0,69.7,29.95,South,180,0.0,0.0,99,0.00,BKN,,0.00,WeatherDisplay:10.37,2013-09-12 09:55:00,
2013-09-12 06:00:00,70.0,69.7,29.95,South,180,0.0,0.0,99,0.00,BKN,,0.00,WeatherDisplay:10.37,2013-09-12 10:00:00,
2013-09-12 06:05:00,70.0,69.7,29.95,South,180,0.0,0.0,99,0.00,OVC,,0.00,WeatherDisplay:10.37,2013-09-12 10:05:00,
2013-09-12 06:10:00,70.0,69.7,29.95,South,180,0.0,0.0,99,0.00,OVC,,0.00,WeatherDisplay:10.37,2013-09-12 10:10:00,
2013-09-12 06:15:00,70.0,69.7,29.95,South,180,0.0,0.0,99,0.00,OVC,,0.00,WeatherDisplay:10.37,2013-09-12 10:15:00,
2013-09-12 06:20:00,70.0,69.7,29.95,South,180,0.0,0.0,99,0.00,OVC,,0.00,WeatherDisplay:10.37,2013-09-12 10:20:00,
2013-09-12 06:25:00,70.0,69.7,29.95,South,180,0.0,0.0,99,0.00,OVC,,0.00,WeatherDisplay:10.37,2013-09-12 10:25:00,
2013-09-12 06:30:00,70.0,69.7,29.95,South,180,0.0,0.0,99,0.00,OVC,,0.00,WeatherDisplay:10.37,2013-09-12 10:30:00,
2013-09-12 06:35:00,70.0,69.7,29.95,South,180,0.0,0.0,99,0.00,OVC,,0.00,WeatherDisplay:10.37,2013-09-12 10:35:00,
2013-09-12 06:40:00,70.0,69.7,29.95,South,180,0.0,0.0,99,0.00,OVC,,0.00,WeatherDisplay:10.37,2013-09-12 10:40:00,
2013-09-12 06:45:00,70.0,69.7,29.95,South,180,0.0,0.0,99,0.00,OVC,,0.00,WeatherDisplay:10.37,2013-09-12 10:45:00,
2013-09-12 06:50:00,70.0,69.7,29.95,South,180,0.0,0.0,99,0.00,OVC,,0.00,WeatherDisplay:10.37,2013-09-12 10:50:00,
2013-09-12 06:55:00,69.8,69.5,29.95,South,180,0.0,0.0,99,0.00,OVC,,0.00,WeatherDisplay:10.37,2013-09-12 10:55:00,
2013-09-12 07:00:00,69.8,69.5,29.95,South,180,0.0,0.0,99,0.00,OVC,,0.00,WeatherDisplay:10.37,2013-09-12 11:00:00,
2013-09-12 07:05:00,69.8,69.5,29.95,South,180,0.0,0.0,99,0.00,FEW,,0.00,WeatherDisplay:10.37,2013-09-12 11:05:00,
2013-09-12 07:10:00,69.8,69.5,29.95,South,180,0.0,0.0,99,0.00,FEW,,0.00,WeatherDisplay:10.37,2013-09-12 11:10:00,
2013-09-12 07:15:00,69.8,69.5,29.95,South,180,0.0,0.0,99,0.00,FEW,,0.00,WeatherDisplay:10.37,2013-09-12 11:15:00,
2013-09-12 07:20:00,69.8,69.5,29.95,South,180,0.0,0.0,99,0.00,FEW,,0.00,WeatherDisplay:10.37,2013-09-12 11:20:00,
2013-09-12 07:25:00,70.2,69.9,29.95,South,180,0.0,0.0,99,0.00,FEW,,0.00,WeatherDisplay:10.37,2013-09-12 11:25:00,
2013-09-12 07:30:00,70.3,70.0,29.95,South,180,0.0,0.0,99,0.00,FEW,,0.00,WeatherDisplay:10.37,2013-09-12 11:30:00,
2013-09-12 07:35:00,70.7,70.4,29.95,South,180,0.0,0.0,99,0.00,FEW,,0.00,WeatherDisplay:10.37,2013-09-12 11:35:00,
2013-09-12 07:40:00,71.1,70.8,29.95,South,180,0.0,0.0,99,0.00,FEW,,0.00,WeatherDisplay:10.37,2013-09-12 11:40:00,
2013-09-12 07:45:00,71.2,70.9,29.95,South,180,0.0,0.0,99,0.00,FEW,,0.00,WeatherDisplay:10.37,2013-09-12 11:45:00,
2013-09-12 07:50:00,71.6,71.3,29.95,West,270,0.0,0.0,99,0.00,FEW,,0.00,WeatherDisplay:10.37,2013-09-12 11:50:00,
2013-09-12 07:55:00,72.5,72.2,29.95,SW,225,0.7,0.0,99,0.00,FEW,,0.00,WeatherDisplay:10.37,2013-09-12 11:55:00,
2013-09-12 08:00:00,74.1,73.5,29.95,SW,225,1.1,0.0,98,0.00,FEW,,0.00,WeatherDisplay:10.37,2013-09-12 12:00:00,
2013-09-12 08:05:00,75.9,73.7,29.95,North,0,0.0,0.0,93,0.00,BKN,,0.00,WeatherDisplay:10.37,2013-09-12 12:05:00,
2013-09-12 08:10:00,76.5,73.3,29.95,NE,45,1.1,0.0,90,0.00,BKN,,0.00,WeatherDisplay:10.37,2013-09-12 12:10:00,
2013-09-12 08:15:00,77.4,73.2,29.95,SE,135,2.3,0.0,87,0.00,BKN,,0.00,WeatherDisplay:10.37,2013-09-12 12:15:00,
2013-09-12 08:20:00,78.1,73.5,29.94,West,270,1.1,0.0,86,0.00,BKN,,0.00,WeatherDisplay:10.37,2013-09-12 12:20:00,
2013-09-12 08:25:00,78.6,73.0,29.94,West,270,1.1,0.0,83,0.00,BKN,,0.00,WeatherDisplay:10.37,2013-09-12 12:25:00,
2013-09-12 08:30:00,77.7,72.1,29.94,West,270,1.1,0.0,83,0.00,BKN,,0.00,WeatherDisplay:10.37,2013-09-12 12:30:00,
2013-09-12 08:35:00,76.6,71.8,29.94,West,270,1.1,1.1,85,0.00,BKN,,0.00,WeatherDisplay:10.37,2013-09-12 12:35:00,
2013-09-12 08:40:00,75.9,71.8,29.94,West,270,1.1,1.1,87,0.00,BKN,,0.00,WeatherDisplay:10.37,2013-09-12 12:40:00,
2013-09-12 08:45:00,75.6,71.8,29.93,West,270,1.1,1.1,88,0.00,BKN,,0.00,WeatherDisplay:10.37,2013-09-12 12:45:00,
2013-09-12 08:50:00,75.6,72.1,29.93,SW,225,1.1,0.0,89,0.00,BKN,,0.00,WeatherDisplay:10.37,2013-09-12 12:50:00,
2013-09-12 08:55:00,75.7,72.3,29.93,SW,225,1.1,0.0,89,0.00,BKN,,0.00,WeatherDisplay:10.37,2013-09-12 12:55:00,
2013-09-12 09:00:00,76.1,72.6,29.93,SW,225,0.0,0.0,89,0.00,BKN,,0.00,WeatherDisplay:10.37,2013-09-12 13:00:00,
2013-09-12 09:05:00,76.8,73.0,29.93,SW,225,1.1,0.0,88,0.00,BKN,,0.00,WeatherDisplay:10.37,2013-09-12 13:05:00,
2013-09-12 09:10:00,77.7,73.2,29.93,SW,225,1.1,0.0,86,0.00,BKN,,0.00,WeatherDisplay:10.37,2013-09-12 13:10:00,
2013-09-12 09:15:00,79.3,73.4,29.92,West,270,2.3,2.3,82,0.00,BKN,,0.00,WeatherDisplay:10.37,2013-09-12 13:15:00,
2013-09-12 09:20:00,79.5,72.4,29.92,West,270,1.1,0.0,79,0.00,BKN,,0.00,WeatherDisplay:10.37,2013-09-12 13:20:00,
2013-09-12 09:25:00,79.2,72.5,29.92,West,270,1.1,0.0,80,0.00,BKN,,0.00,WeatherDisplay:10.37,2013-09-12 13:25:00,
2013-09-12 09:30:00,79.5,72.8,29.92,SW,225,1.1,1.1,80,0.00,BKN,,0.00,WeatherDisplay:10.37,2013-09-12 13:30:00,
2013-09-12 09:35:00,80.4,72.5,29.92,SW,225,2.3,2.3,77,0.00,BKN,,0.00,WeatherDisplay:10.37,2013-09-12 13:35:00,
2013-09-12 09:40:00,81.9,72.8,29.92,SW,225,2.3,2.3,74,0.00,BKN,,0.00,WeatherDisplay:10.37,2013-09-12 13:40:00,
2013-09-12 09:45:00,83.3,72.9,29.92,SW,225,1.1,1.1,71,0.00,BKN,,0.00,WeatherDisplay:10.37,2013-09-12 13:45:00,
2013-09-12 09:50:00,84.6,72.8,29.91,West,270,2.3,0.0,68,0.00,BKN,,0.00,WeatherDisplay:10.37,2013-09-12 13:50:00,
2013-09-12 09:55:00,84.9,72.3,29.91,West,270,3.1,3.1,66,0.00,BKN,,0.00,WeatherDisplay:10.37,2013-09-12 13:55:00,
2013-09-12 10:00:00,84.7,72.1,29.92,SW,225,2.3,2.3,66,0.00,BKN,,0.00,WeatherDisplay:10.37,2013-09-12 14:00:00,
2013-09-12 10:05:00,85.3,73.1,29.91,SW,225,1.1,0.0,67,0.00,CLR,,0.00,WeatherDisplay:10.37,2013-09-12 14:05:00,
2013-09-12 10:10:00,85.8,73.1,29.91,SW,225,1.1,0.0,66,0.00,CLR,,0.00,WeatherDisplay:10.37,2013-09-12 14:10:00,
2013-09-12 10:15:00,87.4,74.2,29.90,NE,45,1.1,0.0,65,0.00,CLR,,0.00,WeatherDisplay:10.37,2013-09-12 14:15:00,
2013-09-12 10:20:00,88.5,73.3,29.91,SW,225,1.1,1.1,61,0.00,CLR,,0.00,WeatherDisplay:10.37,2013-09-12 14:20:00,
2013-09-12 10:25:00,88.9,73.7,29.90,West,270,1.1,0.0,61,0.00,CLR,,0.00,WeatherDisplay:10.37,2013-09-12 14:25:00,
2013-09-12 10:30:00,88.9,72.7,29.90,NE,45,3.5,0.0,59,0.00,CLR,,0.00,WeatherDisplay:10.37,2013-09-12 14:30:00,
2013-09-12 10:35:00,88.9,72.2,29.90,SW,225,3.5,3.5,58,0.00,CLR,,0.00,WeatherDisplay:10.37,2013-09-12 14:35:00,
2013-09-12 10:40:00,88.7,72.5,29.90,SW,225,3.5,3.5,59,0.00,CLR,,0.00,WeatherDisplay:10.37,2013-09-12 14:40:00,
2013-09-12 10:45:00,89.4,73.2,29.90,SW,225,2.3,2.3,59,0.00,CLR,,0.00,WeatherDisplay:10.37,2013-09-12 14:45:00,
2013-09-12 10:50:00,90.5,73.7,29.90,SW,225,1.1,0.0,58,0.00,CLR,,0.00,WeatherDisplay:10.37,2013-09-12 14:50:00,
2013-09-12 10:55:00,90.5,72.7,29.90,West,270,2.3,2.3,56,0.00,CLR,,0.00,WeatherDisplay:10.37,2013-09-12 14:55:00,
2013-09-12 11:00:00,91.0,72.1,29.90,West,270,2.3,2.3,54,0.00,CLR,,0.00,WeatherDisplay:10.37,2013-09-12 15:00:00,
2013-09-12 11:05:00,90.1,72.3,29.89,SW,225,1.1,1.1,56,0.00,CLR,,0.00,WeatherDisplay:10.37,2013-09-12 15:05:00,
2013-09-12 11:10:00,90.3,72.5,29.90,SW,225,3.5,3.5,56,0.00,CLR,,0.00,WeatherDisplay:10.37,2013-09-12 15:10:00,
2013-09-12 11:15:00,90.9,72.5,29.89,SW,225,2.3,2.3,55,0.00,CLR,,0.00,WeatherDisplay:10.37,2013-09-12 15:15:00,
2013-09-12 11:20:00,90.9,71.9,29.89,SSE,158,3.5,3.5,54,0.00,CLR,,0.00,WeatherDisplay:10.37,2013-09-12 15:20:00,
2013-09-12 11:25:00,90.9,72.5,29.89,West,270,3.5,0.0,55,0.00,CLR,,0.00,WeatherDisplay:10.37,2013-09-12 15:25:00,
2013-09-12 11:30:00,90.0,72.2,29.89,West,270,3.5,3.5,56,0.00,CLR,,0.00,WeatherDisplay:10.37,2013-09-12 15:30:00,
2013-09-12 11:35:00,89.4,72.2,29.88,SW,225,2.3,2.3,57,0.00,CLR,,0.00,WeatherDisplay:10.37,2013-09-12 15:35:00,
2013-09-12 11:40:00,88.5,71.9,29.88,West,270,3.5,3.5,58,0.00,CLR,,0.00,WeatherDisplay:10.37,2013-09-12 15:40:00,
2013-09-12 11:45:00,89.1,71.8,29.88,West,270,2.3,2.3,57,0.00,CLR,,0.00,WeatherDisplay:10.37,2013-09-12 15:45:00,
2013-09-12 11:50:00,89.1,72.4,29.88,SW,225,2.3,2.3,58,0.00,CLR,,0.00,WeatherDisplay:10.37,2013-09-12 15:50:00,
2013-09-12 11:55:00,88.5,71.3,29.88,West,270,3.5,0.0,57,0.00,CLR,,0.00,WeatherDisplay:10.37,2013-09-12 15:55:00,
2013-09-12 12:00:00,88.5,72.9,29.87,SW,225,1.1,1.1,60,0.00,CLR,,0.00,WeatherDisplay:10.37,2013-09-12 16:00:00,
2013-09-12 12:05:00,90.3,73.5,29.87,West,270,3.5,3.5,58,0.00,SCT,,0.00,WeatherDisplay:10.37,2013-09-12 16:05:00,
2013-09-12 12:10:00,91.2,72.2,29.87,South,180,1.1,1.1,54,0.00,SCT,,0.00,WeatherDisplay:10.37,2013-09-12 16:10:00,
2013-09-12 12:15:00,91.8,72.7,29.87,West,270,1.1,1.1,54,0.00,SCT,,0.00,WeatherDisplay:10.37,2013-09-12 16:15:00,
2013-09-12 12:20:00,91.0,72.6,29.87,SW,225,3.5,0.0,55,0.00,SCT,,0.00,WeatherDisplay:10.37,2013-09-12 16:20:00,
2013-09-12 12:25:00,91.2,72.2,29.86,SW,225,1.1,1.1,54,0.00,SCT,,0.00,WeatherDisplay:10.37,2013-09-12 16:25:00,
2013-09-12 12:30:00,93.0,73.4,29.86,SW,225,1.1,1.1,53,0.00,SCT,,0.00,WeatherDisplay:10.37,2013-09-12 16:30:00,
2013-09-12 12:35:00,94.3,73.4,29.85,West,270,1.1,1.6,51,0.00,SCT,,0.00,WeatherDisplay:10.37,2013-09-12 16:35:00,
2013-09-12 12:40:00,94.3,72.8,29.85,SW,225,2.3,0.0,50,0.00,SCT,,0.00,WeatherDisplay:10.37,2013-09-12 16:40:00,
2013-09-12 12:45:00,94.3,72.2,29.85,SW,225,3.5,3.5,49,0.00,SCT,,0.00,WeatherDisplay:10.37,2013-09-12 16:45:00,
2013-09-12 12:50:00,93.7,72.3,29.85,West,270,2.3,2.3,50,0.00,SCT,,0.00,WeatherDisplay:10.37,2013-09-12 16:50:00,
2013-09-12 12:55:00,92.8,72.6,29.85,SW,225,1.1,1.1,52,0.00,SCT,,0.00,WeatherDisplay:10.37,2013-09-12 16:55:00,
2013-09-12 13:00:00,92.3,72.1,29.85,South,180,2.3,2.3,52,0.00,SCT,,0.00,WeatherDisplay:10.37,2013-09-12 17:00:00,
2013-09-12 13:05:00,91.4,72.4,29.84,SW,225,2.3,0.0,54,0.00,FEW,,0.00,WeatherDisplay:10.37,2013-09-12 17:05:00,
2013-09-12 13:10:00,91.9,72.4,29.84,SW,225,3.5,3.5,53,0.00,FEW,,0.00,WeatherDisplay:10.37,2013-09-12 17:10:00,
2013-09-12 13:15:00,93.0,71.6,29.84,West,270,3.5,3.5,50,0.00,FEW,,0.00,WeatherDisplay:10.37,2013-09-12 17:15:00,
2013-09-12 13:20:00,93.7,71.1,29.83,West,270,3.5,3.5,48,0.00,FEW,,0.00,WeatherDisplay:10.37,2013-09-12 17:20:00,
2013-09-12 13:25:00,93.9,71.2,29.83,West,270,2.3,2.3,48,0.00,FEW,,0.00,WeatherDisplay:10.37,2013-09-12 17:25:00,
2013-09-12 13:30:00,93.6,70.9,29.83,West,270,3.5,3.5,48,0.00,FEW,,0.00,WeatherDisplay:10.37,2013-09-12 17:30:00,
2013-09-12 13:35:00,92.3,69.8,29.82,SW,225,3.5,3.5,48,0.00,FEW,,0.00,WeatherDisplay:10.37,2013-09-12 17:35:00,
2013-09-12 13:40:00,91.4,69.6,29.82,West,270,4.6,4.6,49,0.00,FEW,,0.00,WeatherDisplay:10.37,2013-09-12 17:40:00,
2013-09-12 13:45:00,91.4,70.7,29.82,SW,225,3.5,3.5,51,0.00,FEW,,0.00,WeatherDisplay:10.37,2013-09-12 17:45:00,
2013-09-12 13:50:00,91.6,71.5,29.82,West,270,1.1,0.0,52,0.00,FEW,,0.00,WeatherDisplay:10.37,2013-09-12 17:50:00,
2013-09-12 13:55:00,91.8,71.1,29.82,SW,225,3.5,3.5,51,0.00,FEW,,0.00,WeatherDisplay:10.37,2013-09-12 17:55:00,
2013-09-12 14:00:00,91.2,70.6,29.81,SW,225,3.5,3.5,51,0.00,FEW,,0.00,WeatherDisplay:10.37,2013-09-12 18:00:00,
2013-09-12 14:05:00,92.1,71.4,29.81,West,270,3.8,3.8,51,0.00,FEW,,0.00,WeatherDisplay:10.37,2013-09-12 18:05:00,
2013-09-12 14:10:00,93.0,70.4,29.81,West,270,2.3,2.3,48,0.00,FEW,,0.00,WeatherDisplay:10.37,2013-09-12 18:10:00,
2013-09-12 14:15:00,92.3,69.8,29.81,West,270,3.5,3.5,48,0.00,FEW,,0.00,WeatherDisplay:10.37,2013-09-12 18:15:00,
2013-09-12 14:20:00,91.0,70.4,29.81,SW,225,5.8,5.8,51,0.00,FEW,,0.00,WeatherDisplay:10.37,2013-09-12 18:20:00,
2013-09-12 14:25:00,89.1,66.2,29.80,West,270,5.8,5.8,47,0.00,FEW,,0.00,WeatherDisplay:10.37,2013-09-12 18:25:00,
2013-09-12 14:30:00,88.0,66.4,29.80,West,270,2.3,2.3,49,0.00,FEW,,0.00,WeatherDisplay:10.37,2013-09-12 18:30:00,
2013-09-12 14:35:00,87.1,67.9,29.79,West,270,1.1,1.1,53,0.00,FEW,,0.00,WeatherDisplay:10.37,2013-09-12 18:35:00,
2013-09-12 14:40:00,87.8,68.0,29.79,SW,225,2.3,2.3,52,0.00,FEW,,0.00,WeatherDisplay:10.37,2013-09-12 18:40:00,
2013-09-12 14:45:00,87.8,68.5,29.78,West,270,1.1,0.0,53,0.00,FEW,,0.00,WeatherDisplay:10.37,2013-09-12 18:45:00,
2013-09-12 14:50:00,87.6,69.5,29.77,West,270,1.1,0.0,55,0.00,FEW,,0.00,WeatherDisplay:10.37,2013-09-12 18:50:00,
2013-09-12 14:55:00,88.5,70.3,29.77,West,270,1.1,0.0,55,0.00,FEW,,0.00,WeatherDisplay:10.37,2013-09-12 18:55:00,
2013-09-12 15:00:00,91.0,71.0,29.77,SW,225,2.3,2.3,52,0.00,FEW,,0.00,WeatherDisplay:10.37,2013-09-12 19:00:00,
2013-09-12 15:05:00,92.3,69.8,29.76,SW,225,4.6,4.6,48,0.00,FEW,,0.00,WeatherDisplay:10.37,2013-09-12 19:05:00,
2013-09-12 15:10:00,92.7,68.9,29.75,SW,225,5.8,5.8,46,0.00,FEW,,0.00,WeatherDisplay:10.37,2013-09-12 19:10:00,
2013-09-12 15:15:00,91.8,68.7,29.75,SW,225,3.5,3.5,47,0.00,FEW,,0.00,WeatherDisplay:10.37,2013-09-12 19:15:00,
2013-09-12 15:20:00,90.3,64.1,29.75,West,270,6.9,6.9,42,0.00,FEW,,0.00,WeatherDisplay:10.37,2013-09-12 19:20:00,
2013-09-12 15:25:00,89.6,64.1,29.75,West,270,5.8,5.8,43,0.00,FEW,,0.00,WeatherDisplay:10.37,2013-09-12 19:25:00,
2013-09-12 15:30:00,90.7,65.8,29.75,SW,225,5.8,5.8,44,0.00,FEW,,0.00,WeatherDisplay:10.37,2013-09-12 19:30:00,
2013-09-12 15:35:00,91.4,66.4,29.75,SW,225,6.9,6.9,44,0.00,FEW,,0.00,WeatherDisplay:10.37,2013-09-12 19:35:00,
2013-09-12 15:40:00,91.4,66.4,29.74,SW,225,4.6,4.6,44,0.00,FEW,,0.00,WeatherDisplay:10.37,2013-09-12 19:40:00,
2013-09-12 15:45:00,91.0,67.4,29.74,SW,225,3.5,3.5,46,0.00,FEW,,0.00,WeatherDisplay:10.37,2013-09-12 19:45:00,
2013-09-12 15:50:00,91.9,67.6,29.74,West,270,5.8,5.8,45,0.00,FEW,,0.00,WeatherDisplay:10.37,2013-09-12 19:50:00,
2013-09-12 15:55:00,92.1,66.4,29.74,West,270,8.1,8.1,43,0.00,FEW,,0.00,WeatherDisplay:10.37,2013-09-12 19:55:00,
2013-09-12 16:00:00,91.8,68.0,29.74,West,270,5.8,5.8,46,0.00,FEW,,0.00,WeatherDisplay:10.37,2013-09-12 20:00:00,
2013-09-12 16:05:00,92.1,65.0,29.74,SW,225,10.4,10.4,41,0.00,FEW,,0.00,WeatherDisplay:10.37,2013-09-12 20:05:00,
2013-09-12 16:10:00,92.3,65.2,29.74,SW,225,5.8,5.8,41,0.00,FEW,,0.00,WeatherDisplay:10.37,2013-09-12 20:10:00,
2013-09-12 16:15:00,92.3,65.9,29.74,West,270,6.9,6.9,42,0.00,FEW,,0.00,WeatherDisplay:10.37,2013-09-12 20:15:00,
2013-09-12 16:20:00,92.5,66.1,29.73,SW,225,5.8,5.8,42,0.00,CLR,,0.00,WeatherDisplay:10.37,2013-09-12 20:20:00,
2013-09-12 16:25:00,91.8,66.1,29.73,SW,225,5.8,5.8,43,0.00,CLR,,0.00,WeatherDisplay:10.37,2013-09-12 20:25:00,
2013-09-12 16:30:00,91.2,66.3,29.73,SW,225,5.8,5.8,44,0.00,CLR,,0.00,WeatherDisplay:10.37,2013-09-12 20:30:00,
2013-09-12 16:35:00,90.9,65.9,29.73,West,270,6.9,6.9,44,0.00,CLR,,0.00,WeatherDisplay:10.37,2013-09-12 20:35:00,
2013-09-12 16:40:00,90.1,64.6,29.73,West,270,6.9,6.9,43,0.00,CLR,,0.00,WeatherDisplay:10.37,2013-09-12 20:40:00,
2013-09-12 16:45:00,89.2,63.8,29.73,SW,225,5.8,5.8,43,0.00,CLR,,0.00,WeatherDisplay:10.37,2013-09-12 20:45:00,
2013-09-12 16:50:00,88.9,64.1,29.73,West,270,5.8,5.8,44,0.00,CLR,,0.00,WeatherDisplay:10.37,2013-09-12 20:50:00,
2013-09-12 16:55:00,88.9,64.8,29.73,SW,225,3.5,3.5,45,0.00,CLR,,0.00,WeatherDisplay:10.37,2013-09-12 20:55:00,
2013-09-12 17:00:00,89.2,65.1,29.73,SW,225,4.6,4.6,45,0.00,CLR,,0.00,WeatherDisplay:10.37,2013-09-12 21:00:00,
2013-09-12 17:05:00,89.1,65.0,29.74,West,270,4.6,4.6,45,0.00,CLR,,0.00,WeatherDisplay:10.37,2013-09-12 21:05:00,
2013-09-12 17:10:00,88.9,66.0,29.74,SW,225,2.3,0.0,47,0.00,CLR,,0.00,WeatherDisplay:10.37,2013-09-12 21:10:00,
2013-09-12 17:15:00,88.7,65.9,29.75,SW,225,1.1,1.6,47,0.00,CLR,,0.00,WeatherDisplay:10.37,2013-09-12 21:15:00,
2013-09-12 17:20:00,88.3,67.9,29.75,South,180,3.5,3.5,51,0.00,CLR,,0.00,WeatherDisplay:10.37,2013-09-12 21:20:00,
2013-09-12 17:25:00,87.4,68.2,29.75,South,180,3.5,0.0,53,0.00,CLR,,0.00,WeatherDisplay:10.37,2013-09-12 21:25:00,
2013-09-12 17:30:00,86.2,68.6,29.76,West,270,3.5,3.5,56,0.00,CLR,,0.00,WeatherDisplay:10.37,2013-09-12 21:30:00,
2013-09-12 17:35:00,84.7,68.3,29.76,West,270,2.3,0.0,58,0.00,CLR,,0.00,WeatherDisplay:10.37,2013-09-12 21:35:00,
2013-09-12 17:40:00,84.0,68.6,29.76,SW,225,1.1,0.0,60,0.00,CLR,,0.00,WeatherDisplay:10.37,2013-09-12 21:40:00,
2013-09-12 17:45:00,83.5,69.1,29.77,West,270,1.1,0.0,62,0.00,CLR,,0.00,WeatherDisplay:10.37,2013-09-12 21:45:00,
2013-09-12 17:50:00,83.3,68.9,29.77,SW,225,1.1,0.0,62,0.00,CLR,,0.00,WeatherDisplay:10.37,2013-09-12 21:50:00,
2013-09-12 17:55:00,82.9,68.1,29.77,West,270,3.5,3.5,61,0.00,CLR,,0.00,WeatherDisplay:10.37,2013-09-12 21:55:00,
2013-09-12 18:00:00,83.3,65.4,29.77,West,270,5.8,5.8,55,0.00,CLR,,0.00,WeatherDisplay:10.37,2013-09-12 22:00:00,
2013-09-12 18:05:00,83.7,65.8,29.77,West,270,3.5,3.5,55,0.00,SCT,,0.00,WeatherDisplay:10.37,2013-09-12 22:05:00,
2013-09-12 18:10:00,83.8,64.9,29.77,West,270,4.6,4.6,53,0.00,SCT,,0.00,WeatherDisplay:10.37,2013-09-12 22:10:00,
2013-09-12 18:15:00,83.8,64.9,29.77,West,270,4.6,4.6,53,0.00,SCT,,0.00,WeatherDisplay:10.37,2013-09-12 22:15:00,
2013-09-12 18:20:00,83.7,64.2,29.77,NW,315,4.6,4.6,52,0.00,SCT,,0.00,WeatherDisplay:10.37,2013-09-12 22:20:00,
2013-09-12 18:25:00,83.5,64.5,29.77,West,270,3.5,3.5,53,0.00,SCT,,0.00,WeatherDisplay:10.37,2013-09-12 22:25:00,
2013-09-12 18:30:00,82.9,64.0,29.77,West,270,3.5,3.5,53,0.00,SCT,,0.00,WeatherDisplay:10.37,2013-09-12 22:30:00,
2013-09-12 18:35:00,82.6,63.7,29.77,SW,225,5.8,5.8,53,0.00,SCT,,0.00,WeatherDisplay:10.37,2013-09-12 22:35:00,
2013-09-12 18:40:00,82.2,63.4,29.77,SW,225,3.5,3.5,53,0.00,SCT,,0.00,WeatherDisplay:10.37,2013-09-12 22:40:00,
2013-09-12 18:45:00,81.9,63.6,29.76,West,270,3.5,3.5,54,0.00,SCT,,0.00,WeatherDisplay:10.37,2013-09-12 22:45:00,
2013-09-12 18:50:00,81.7,63.9,29.76,West,270,3.5,3.5,55,0.00,SCT,,0.00,WeatherDisplay:10.37,2013-09-12 22:50:00,
2013-09-12 18:55:00,81.3,64.1,29.76,SW,225,2.3,2.3,56,0.00,SCT,,0.00,WeatherDisplay:10.37,2013-09-12 22:55:00,
2013-09-12 19:00:00,81.0,63.8,29.77,West,270,3.5,3.5,56,0.00,SCT,,0.00,WeatherDisplay:10.37,2013-09-12 23:00:00,
2013-09-12 19:05:00,80.8,64.1,29.77,SW,225,2.3,2.3,57,0.00,CLR,,0.00,WeatherDisplay:10.37,2013-09-12 23:05:00,
2013-09-12 19:10:00,80.6,64.5,29.77,West,270,1.1,0.0,58,0.00,CLR,,0.00,WeatherDisplay:10.37,2013-09-12 23:10:00,
2013-09-12 19:15:00,80.2,64.1,29.77,SW,225,2.3,2.3,58,0.00,CLR,,0.00,WeatherDisplay:10.37,2013-09-12 23:15:00,
2013-09-12 19:20:00,79.9,64.3,29.77,West,270,2.3,2.3,59,0.00,CLR,,0.00,WeatherDisplay:10.37,2013-09-12 23:20:00,
2013-09-12 19:25:00,79.7,64.1,29.77,West,270,2.3,0.0,59,0.00,CLR,,0.00,WeatherDisplay:10.37,2013-09-12 23:25:00,
2013-09-12 19:30:00,79.5,64.4,29.77,West,270,1.1,0.0,60,0.00,CLR,,0.00,WeatherDisplay:10.37,2013-09-12 23:30:00,
2013-09-12 19:35:00,79.3,64.2,29.77,West,270,1.1,0.0,60,0.00,CLR,,0.00,WeatherDisplay:10.37,2013-09-12 23:35:00,
2013-09-12 19:40:00,79.0,64.4,29.77,West,270,0.0,0.0,61,0.00,CLR,,0.00,WeatherDisplay:10.37,2013-09-12 23:40:00,
2013-09-12 19:45:00,78.8,64.2,29.77,West,270,0.0,0.0,61,0.00,CLR,,0.00,WeatherDisplay:10.37,2013-09-12 23:45:00,
2013-09-12 19:50:00,78.4,64.8,29.77,West,270,0.0,0.0,63,0.00,CLR,,0.00,WeatherDisplay:10.37,2013-09-12 23:50:00,
2013-09-12 19:55:00,78.1,64.5,29.77,West,270,0.0,0.0,63,0.00,CLR,,0.00,WeatherDisplay:10.37,2013-09-12 23:55:00,
2013-09-12 20:00:00,78.1,64.9,29.78,West,270,2.3,0.0,64,0.00,CLR,,0.00,WeatherDisplay:10.37,2013-09-13 00:00:00,
2013-09-12 20:05:00,78.1,64.9,29.78,SW,225,4.6,4.6,64,0.00,FEW,,0.00,WeatherDisplay:10.37,2013-09-13 00:05:00,
2013-09-12 20:10:00,78.1,64.9,29.77,SW,225,3.5,3.5,64,0.00,FEW,,0.00,WeatherDisplay:10.37,2013-09-13 00:10:00,
2013-09-12 20:15:00,78.1,64.9,29.77,SW,225,3.5,3.5,64,0.00,FEW,,0.00,WeatherDisplay:10.37,2013-09-13 00:15:00,
2013-09-12 20:20:00,78.1,64.9,29.78,SW,225,5.8,5.8,64,0.00,FEW,,0.00,WeatherDisplay:10.37,2013-09-13 00:20:00,
2013-09-12 20:25:00,78.1,64.9,29.78,West,270,3.5,3.5,64,0.00,FEW,,0.00,WeatherDisplay:10.37,2013-09-13 00:25:00,
2013-09-12 20:30:00,78.1,65.4,29.78,West,270,3.5,3.5,65,0.00,FEW,,0.00,WeatherDisplay:10.37,2013-09-13 00:30:00,
2013-09-12 20:35:00,78.1,65.4,29.78,SW,225,3.5,3.5,65,0.00,FEW,,0.00,WeatherDisplay:10.37,2013-09-13 00:35:00,
2013-09-12 20:40:00,77.7,65.5,29.79,West,270,5.8,5.8,66,0.00,FEW,,0.00,WeatherDisplay:10.37,2013-09-13 00:40:00,
2013-09-12 20:45:00,77.7,65.5,29.78,SW,225,4.6,4.6,66,0.00,FEW,,0.00,WeatherDisplay:10.37,2013-09-13 00:45:00,
2013-09-12 20:50:00,77.5,65.7,29.78,West,270,3.5,3.5,67,0.00,FEW,,0.00,WeatherDisplay:10.37,2013-09-13 00:50:00,
2013-09-12 20:55:00,77.4,66.0,29.78,West,270,4.6,4.6,68,0.00,FEW,,0.00,WeatherDisplay:10.37,2013-09-13 00:55:00,
2013-09-12 21:00:00,77.0,66.0,29.77,SW,225,3.5,3.5,69,0.00,FEW,,0.00,WeatherDisplay:10.37,2013-09-13 01:00:00,
2013-09-12 21:05:00,76.6,66.1,29.77,West,270,2.3,2.3,70,0.00,-RA,,0.00,WeatherDisplay:10.37,2013-09-13 01:05:00,
2013-09-12 21:10:00,76.5,66.4,29.78,SW,225,2.3,2.3,71,0.00,-RA,,0.00,WeatherDisplay:10.37,2013-09-13 01:10:00,
2013-09-12 21:15:00,76.1,66.4,29.78,West,270,2.3,2.3,72,0.00,-RA,,0.00,WeatherDisplay:10.37,2013-09-13 01:15:00,
2013-09-12 21:20:00,76.1,66.4,29.78,SW,225,3.5,3.5,72,0.00,-RA,,0.00,WeatherDisplay:10.37,2013-09-13 01:20:00,
2013-09-12 21:25:00,75.9,66.2,29.79,West,270,2.3,2.3,72,0.00,-RA,,0.00,WeatherDisplay:10.37,2013-09-13 01:25:00,
2013-09-12 21:30:00,75.7,66.5,29.79,SW,225,3.5,3.5,73,0.00,-RA,,0.00,WeatherDisplay:10.37,2013-09-13 01:30:00,
2013-09-12 21:35:00,75.7,66.5,29.79,NW,315,3.5,3.5,73,0.00,-RA,,0.00,WeatherDisplay:10.37,2013-09-13 01:35:00,
2013-09-12 21:40:00,75.7,66.5,29.79,West,270,3.5,3.5,73,0.00,-RA,,0.00,WeatherDisplay:10.37,2013-09-13 01:40:00,
2013-09-12 21:45:00,75.7,66.5,29.78,SW,225,2.3,2.3,73,0.00,-RA,,0.00,WeatherDisplay:10.37,2013-09-13 01:45:00,
2013-09-12 21:50:00,75.6,66.7,29.78,West,270,3.5,3.5,74,0.00,-RA,,0.00,WeatherDisplay:10.37,2013-09-13 01:50:00,
2013-09-12 21:55:00,75.4,66.5,29.78,West,270,2.3,2.3,74,0.00,-RA,,0.00,WeatherDisplay:10.37,2013-09-13 01:55:00,
2013-09-12 22:00:00,75.4,66.5,29.78,West,270,3.5,3.5,74,0.00,-RA,,0.00,WeatherDisplay:10.37,2013-09-13 02:00:00,
2013-09-12 22:05:00,75.4,66.5,29.78,SW,225,2.3,2.3,74,0.00,OVC,,0.00,WeatherDisplay:10.37,2013-09-13 02:05:00,
2013-09-12 22:10:00,75.4,66.9,29.78,SW,225,3.5,3.5,75,0.00,OVC,,0.00,WeatherDisplay:10.37,2013-09-13 02:10:00,
2013-09-12 22:15:00,75.2,66.7,29.79,SW,225,1.1,0.0,75,0.00,OVC,,0.00,WeatherDisplay:10.37,2013-09-13 02:15:00,
2013-09-12 22:20:00,75.2,66.7,29.79,SW,225,0.0,0.0,75,0.00,OVC,,0.00,WeatherDisplay:10.37,2013-09-13 02:20:00,
2013-09-12 22:25:00,75.0,66.6,29.78,SW,225,0.0,0.0,75,0.00,OVC,,0.00,WeatherDisplay:10.37,2013-09-13 02:25:00,
2013-09-12 22:30:00,75.0,66.6,29.78,West,270,0.0,0.0,75,0.00,OVC,,0.00,WeatherDisplay:10.37,2013-09-13 02:30:00,
2013-09-12 22:35:00,75.0,66.6,29.78,West,270,2.3,0.0,75,0.00,OVC,,0.00,WeatherDisplay:10.37,2013-09-13 02:35:00,
2013-09-12 22:40:00,74.8,66.4,29.78,West,270,2.3,2.3,75,0.00,OVC,,0.00,WeatherDisplay:10.37,2013-09-13 02:40:00,
2013-09-12 22:45:00,74.7,66.2,29.78,West,270,1.1,1.1,75,0.00,OVC,,0.00,WeatherDisplay:10.37,2013-09-13 02:45:00,
2013-09-12 22:50:00,74.7,66.6,29.77,West,270,1.1,0.0,76,0.00,OVC,,0.00,WeatherDisplay:10.37,2013-09-13 02:50:00,
2013-09-12 22:55:00,74.5,66.4,29.78,West,270,0.0,0.0,76,0.00,OVC,,0.00,WeatherDisplay:10.37,2013-09-13 02:55:00,
2013-09-12 23:00:00,74.3,66.2,29.78,West,270,0.0,0.0,76,0.00,OVC,,0.00,WeatherDisplay:10.37,2013-09-13 03:00:00,
2013-09-12 23:05:00,74.3,66.2,29.77,West,270,0.0,0.0,76,0.00,SCT,,0.00,WeatherDisplay:10.37,2013-09-13 03:05:00,
2013-09-12 23:10:00,74.1,66.4,29.77,West,270,0.0,0.0,77,0.00,SCT,,0.00,WeatherDisplay:10.37,2013-09-13 03:10:00,
2013-09-12 23:15:00,74.3,66.6,29.77,West,270,1.1,0.0,77,0.00,SCT,,0.00,WeatherDisplay:10.37,2013-09-13 03:15:00,
2013-09-12 23:20:00,74.3,66.6,29.77,West,270,1.1,0.0,77,0.00,SCT,,0.00,WeatherDisplay:10.37,2013-09-13 03:20:00,
2013-09-12 23:25:00,74.1,66.4,29.77,West,270,1.1,0.0,77,0.00,SCT,,0.00,WeatherDisplay:10.37,2013-09-13 03:25:00,
2013-09-12 23:30:00,74.1,66.4,29.77,West,270,0.0,0.0,77,0.00,SCT,,0.00,WeatherDisplay:10.37,2013-09-13 03:30:00,
2013-09-12 23:35:00,73.9,66.3,29.77,West,270,0.0,0.0,77,0.00,SCT,,0.00,WeatherDisplay:10.37,2013-09-13 03:35:00,
2013-09-12 23:40:00,73.9,66.3,29.77,SW,225,1.1,1.1,77,0.00,SCT,,0.00,WeatherDisplay:10.37,2013-09-13 03:40:00,
2013-09-12 23:45:00,73.9,66.3,29.77,West,270,2.3,2.3,77,0.00,SCT,,0.00,WeatherDisplay:10.37,2013-09-13 03:45:00,
2013-09-12 23:50:00,73.8,66.1,29.77,West,270,1.1,1.1,77,0.00,SCT,,0.00,WeatherDisplay:10.37,2013-09-13 03:50:00,
2013-09-12 23:55:00,73.8,66.1,29.76,West,270,2.3,2.3,77,0.00,SCT,,0.00,WeatherDisplay:10.37,2013-09-13 03:55:00,